Point Salines Arpt, Grenada

1:54 PM AST on January 16, 2017 (GMT -0400)
Point Salines International

Weather History for TGPY - March, 2013

Change the Weather History Date:

Friday, March 29, 2013

  Actual Average Record
Temperature  
Mean Temperature 82 °F -  
Max Temperature 87 °F 84 °F 87 °F (2005)
Min Temperature 77 °F 76 °F 70 °F (2014)
Cooling Degree Days 17    
Growing Degree Days 32 (Base 50)    
Moisture  
Dew Point 75 °F    
Average Humidity 78    
Maximum Humidity 89    
Minimum Humidity 66    
Precipitation  
Precipitation 0.00 in - - ()
Sea Level Pressure  
Sea Level Pressure 29.98 in    
Wind  
Wind Speed 14 mph ()    
Max Wind Speed 23 mph    
Max Gust Speed -    
Visibility 6.7 miles    
Events      
Averages and records for this station are not official NWS values.
T = Trace of Precipitation, MM = Missing Value Source: Averaged Metar Reports

Daily Weather History Graph

Daily Weather History Graph

Search for Another Location

Airport or City:

Trip Planner

Search our weather history database for the weather conditions in past years. The results will help you decide how hot, cold, wet, or windy it might be!

Date:

Astronomy

Mar. 29, 2013 Rise Set
Actual Time 6:05 AM AST 6:18 PM AST
Civil Twilight 5:44 AM AST 6:39 PM AST
Nautical Twilight 5:19 AM AST 7:04 PM AST
Astronomical Twilight 4:54 AM AST 7:28 PM AST
Moon 8:38 PM AST (3/29) 7:40 AM AST (3/29)
Length of Visible Light 12h 55m
Length of Day
12h 12m
Waning Gibbous, 93% of the Moon is Illuminated
Mar 29
Waning Gibbous
Apr 3
Last Quarter
Apr 10
New
Apr 18
First Quarter
Apr 25
Full

Hourly Weather History & Observations

Time (AST) Temp. Heat Index Dew Point Humidity Pressure Visibility Wind Dir Wind Speed Gust Speed Precip Events Conditions
12:00 AM 80.6 °F 86.2 °F 75.2 °F 84% 29.98 in 6.2 mi East 15.0 mph - N/A   Scattered Clouds
1:00 AM 80.6 °F 86.2 °F 75.2 °F 84% 29.98 in 6.2 mi East 12.7 mph - N/A   Scattered Clouds
2:00 AM 81 °F - 75 °F 77% 29.95 in 8 mi East 12.7 mph - -   Widespread Dust
2:00 AM 80.6 °F 86.2 °F 75.2 °F 84% 29.95 in 6.2 mi East 12.7 mph - N/A   Scattered Clouds
3:00 AM 80.6 °F 86.2 °F 75.2 °F 84% 29.95 in 6.2 mi East 9.2 mph - N/A   Mostly Cloudy
4:00 AM 80.6 °F 86.2 °F 75.2 °F 84% 29.95 in 6.2 mi East 11.5 mph - N/A   Scattered Clouds
5:00 AM 80 °F - 75 °F 79% 29.95 in 9 mi East 11.5 mph - -   Widespread Dust
5:00 AM 80.6 °F 86.2 °F 75.2 °F 84% 29.95 in 6.2 mi East 11.5 mph - N/A   Scattered Clouds
6:00 AM 78.8 °F - 75.2 °F 89% 29.95 in 6.2 mi East 11.5 mph - N/A   Partly Cloudy
7:00 AM 80.6 °F 86.2 °F 75.2 °F 84% 29.98 in 6.2 mi East 6.9 mph - N/A   Partly Cloudy
8:00 AM 84 °F - 75 °F 68% 30.01 in 8 mi ESE 16.1 mph - -   Widespread Dust
8:00 AM 84.2 °F 92.3 °F 75.2 °F 74% 30.01 in 6.2 mi ESE 16.1 mph - N/A   Partly Cloudy
9:00 AM 84.2 °F 92.3 °F 75.2 °F 74% 30.01 in 6.2 mi ESE 18.4 mph - N/A   Partly Cloudy
10:00 AM 84.2 °F 92.3 °F 75.2 °F 74% 30.01 in 6.2 mi ESE 17.3 mph - N/A   Partly Cloudy
11:00 AM 85 °F - 75 °F 66% 30.02 in 10 mi ESE 18.4 mph - -   Widespread Dust
11:00 AM 84.2 °F 92.3 °F 75.2 °F 74% 30.01 in 6.2 mi ESE 18.4 mph - N/A   Partly Cloudy
12:00 PM 86.0 °F 96.9 °F 77.0 °F 74% 30.01 in 6.2 mi ESE 19.6 mph - N/A   Partly Cloudy
1:00 PM 86.0 °F 96.9 °F 77.0 °F 74% 29.98 in 6.2 mi ESE 20.7 mph - N/A   Partly Cloudy
2:00 PM 85 °F - 76 °F 68% 29.97 in 7 mi SE 20.7 mph - -   Scattered Clouds
2:00 PM 86.0 °F 96.9 °F 77.0 °F 74% 29.98 in 6.2 mi SE 20.7 mph - N/A   Partly Cloudy
3:00 PM 86.0 °F 95.1 °F 75.2 °F 70% 29.95 in 6.2 mi ESE 23.0 mph - N/A   Scattered Clouds
4:00 PM 84.2 °F 92.3 °F 75.2 °F 74% 29.95 in 6.2 mi ESE 21.9 mph - N/A   Partly Cloudy
5:00 PM 83 °F - 76 °F 74% 29.95 in 7 mi ESE 20.7 mph - -   Partly Cloudy
5:00 PM 84.2 °F 92.3 °F 75.2 °F 74% 29.95 in 6.2 mi ESE 20.7 mph - N/A   Scattered Clouds
6:00 PM 82.4 °F 89.5 °F 75.2 °F 79% 29.95 in 6.2 mi ESE 18.4 mph - N/A   Partly Cloudy
7:00 PM 82.4 °F 89.5 °F 75.2 °F 79% 29.95 in 6.2 mi ESE 16.1 mph - N/A   Partly Cloudy
8:00 PM 82 °F - 75 °F 74% 29.99 in 9 mi ESE 16.1 mph - -   Widespread Dust
8:00 PM 82.4 °F 89.5 °F 75.2 °F 79% 29.98 in 6.2 mi ESE 16.1 mph - N/A   Partly Cloudy
9:00 PM 80.6 °F 86.2 °F 75.2 °F 84% 30.01 in 6.2 mi East 15.0 mph - N/A   Partly Cloudy
10:00 PM 80.6 °F 86.2 °F 75.2 °F 84% 30.04 in 6.2 mi ESE 15.0 mph - N/A   Scattered Clouds
11:00 PM 81 °F - 75 °F 78% 30.05 in 9 mi ESE 13.8 mph - -   Widespread Dust
11:00 PM 80.6 °F 86.2 °F 75.2 °F 84% 30.04 in 6.2 mi ESE 13.8 mph - N/A   Scattered Clouds